WAT679 RKJJ-RKPC

Flight info

Callsign WAT679
Flight time 0h 41m
Altitude 12000
Route LILVI1 DOTOL DOTOL2T
Aircraft C130/M-SDE2E3FGRY/H

Departure

Time 2026-04-21 11:41
Airport Gwangju Airport (RKJJ)

Arrival

Time 2026-04-21 12:23
Airport Jeju International Airport (RKPC)
Time Latitude Longitude Altitude Speed Heading
2026-04-21 11:28 35.13867 126.81066 64 ft 0 kts 303°
2026-04-21 11:34 35.13876 126.81062 63 ft 2 kts 359°
2026-04-21 11:34 35.13876 126.81091 64 ft 8 kts 147°
2026-04-21 11:35 35.13784 126.81108 61 ft 16 kts 174°
2026-04-21 11:35 35.13704 126.81193 56 ft 14 kts 139°
2026-04-21 11:35 35.13627 126.81165 55 ft 10 kts 213°
2026-04-21 11:35 35.13537 126.81095 56 ft 22 kts 213°
2026-04-21 11:36 35.13376 126.80974 54 ft 30 kts 211°
2026-04-21 11:36 35.13211 126.80851 52 ft 24 kts 213°
2026-04-21 11:36 35.13086 126.80753 53 ft 17 kts 212°
2026-04-21 11:36 35.12991 126.80682 56 ft 15 kts 212°
2026-04-21 11:37 35.12886 126.80602 58 ft 21 kts 212°
2026-04-21 11:37 35.12742 126.80493 62 ft 24 kts 211°
2026-04-21 11:37 35.12613 126.80395 65 ft 20 kts 213°
2026-04-21 11:37 35.12494 126.80304 65 ft 19 kts 212°
2026-04-21 11:38 35.12369 126.80210 59 ft 23 kts 212°
2026-04-21 11:38 35.12221 126.80096 54 ft 26 kts 212°
2026-04-21 11:38 35.12067 126.79980 53 ft 26 kts 212°
2026-04-21 11:38 35.11914 126.79864 54 ft 24 kts 212°
2026-04-21 11:39 35.11774 126.79760 51 ft 20 kts 196°
2026-04-21 11:39 35.11689 126.79842 51 ft 14 kts 121°
2026-04-21 11:39 35.11636 126.79944 51 ft 16 kts 122°
2026-04-21 11:39 35.11562 126.80093 49 ft 16 kts 120°
2026-04-21 11:40 35.11521 126.80206 48 ft 13 kts 88°
2026-04-21 11:40 35.11587 126.80286 47 ft 12 kts 31°
2026-04-21 11:40 35.11797 126.80432 44 ft 74 kts 30°
2026-04-21 11:40 35.12435 126.80886 49 ft 132 kts 29°
2026-04-21 11:41 35.13310 126.81507 227 ft 153 kts 28°
2026-04-21 11:41 35.14297 126.82117 616 ft 166 kts 21°
2026-04-21 11:41 35.15519 126.82636 618 ft 198 kts 13°
2026-04-21 11:41 35.16787 126.82951 993 ft 178 kts
2026-04-21 11:42 35.18077 126.83053 646 ft 185 kts 359°
2026-04-21 11:42 35.19262 126.83279 1029 ft 174 kts 13°
2026-04-21 11:42 35.20484 126.83328 1468 ft 179 kts 355°
2026-04-21 11:42 35.21641 126.83816 1947 ft 182 kts 36°
2026-04-21 11:43 35.22619 126.84840 2476 ft 185 kts 39°
2026-04-21 11:43 35.23578 126.85873 2997 ft 187 kts 39°
2026-04-21 11:43 35.24564 126.86940 3529 ft 189 kts 39°
2026-04-21 11:43 35.25550 126.88007 4041 ft 192 kts 40°
2026-04-21 11:44 35.26257 126.89359 4496 ft 197 kts 79°
2026-04-21 11:44 35.26000 126.90988 4981 ft 200 kts 118°
2026-04-21 11:44 35.25259 126.92416 5498 ft 201 kts 123°
2026-04-21 11:44 35.24474 126.93818 6004 ft 203 kts 124°
2026-04-21 11:45 35.23649 126.95248 6517 ft 205 kts 125°
2026-04-21 11:45 35.22817 126.96662 7018 ft 207 kts 126°
2026-04-21 11:45 35.21764 126.97814 7467 ft 207 kts 157°
2026-04-21 11:45 35.20406 126.98423 7972 ft 208 kts 162°
2026-04-21 11:46 35.19048 126.98987 8469 ft 209 kts 162°
2026-04-21 11:46 35.17677 126.99550 8962 ft 211 kts 162°
2026-04-21 11:46 35.16276 127.00124 9459 ft 212 kts 162°
2026-04-21 11:46 35.14866 127.00701 9942 ft 214 kts 163°
2026-04-21 11:47 35.13443 127.01201 10375 ft 215 kts 179°
2026-04-21 11:47 35.12081 127.00678 10797 ft 208 kts 218°
2026-04-21 11:47 35.10989 126.99510 11256 ft 208 kts 224°
2026-04-21 11:47 35.09932 126.98327 11688 ft 209 kts 225°
2026-04-21 11:48 35.08842 126.97097 11976 ft 219 kts 225°
2026-04-21 11:48 35.07683 126.95783 12010 ft 238 kts 225°
2026-04-21 11:48 35.06416 126.94344 12021 ft 256 kts 226°
2026-04-21 11:48 35.05083 126.92828 12026 ft 270 kts 226°
2026-04-21 11:49 35.03682 126.91232 12034 ft 281 kts 226°
2026-04-21 11:49 35.02209 126.89556 12027 ft 290 kts 226°
2026-04-21 11:49 35.00718 126.87861 12024 ft 296 kts 226°
2026-04-21 11:49 34.99204 126.86139 12019 ft 300 kts 226°
2026-04-21 11:50 34.97682 126.84405 12014 ft 304 kts 226°
2026-04-21 11:50 34.96118 126.82626 12012 ft 306 kts 226°
2026-04-21 11:50 34.94562 126.80856 12010 ft 308 kts 226°
2026-04-21 11:50 34.92994 126.79076 12003 ft 309 kts 226°
2026-04-21 11:51 34.91410 126.77276 11997 ft 310 kts 226°
2026-04-21 11:51 34.89830 126.75482 12001 ft 310 kts 226°
2026-04-21 11:51 34.88251 126.73690 12005 ft 311 kts 226°
2026-04-21 11:51 34.86668 126.71895 11997 ft 311 kts 225°
2026-04-21 11:52 34.85064 126.70076 11998 ft 311 kts 225°
2026-04-21 11:52 34.83478 126.68285 12005 ft 311 kts 224°
2026-04-21 11:52 34.81556 126.67088 12020 ft 320 kts 195°
2026-04-21 11:52 34.79317 126.66737 12010 ft 323 kts 188°
2026-04-21 11:53 34.77085 126.66478 12004 ft 324 kts 188°
2026-04-21 11:53 34.74823 126.66235 11997 ft 324 kts 188°
2026-04-21 11:53 34.72585 126.65998 12005 ft 324 kts 188°
2026-04-21 11:53 34.70324 126.65759 11999 ft 325 kts 187°
2026-04-21 11:54 34.68082 126.65522 12006 ft 325 kts 187°
2026-04-21 11:54 34.65818 126.65285 12000 ft 325 kts 187°
2026-04-21 11:54 34.63562 126.65057 12006 ft 325 kts 187°
2026-04-21 11:54 34.61299 126.64829 11998 ft 325 kts 187°
2026-04-21 11:55 34.59058 126.64601 12003 ft 325 kts 187°
2026-04-21 11:55 34.56778 126.64368 11998 ft 325 kts 187°
2026-04-21 11:55 34.54536 126.64139 12002 ft 325 kts 187°
2026-04-21 11:55 34.52285 126.63905 11998 ft 325 kts 187°
2026-04-21 11:56 34.50015 126.63670 12004 ft 325 kts 187°
2026-04-21 11:56 34.47765 126.63436 11996 ft 325 kts 187°
2026-04-21 11:56 34.45516 126.63201 11997 ft 325 kts 187°
2026-04-21 11:56 34.43254 126.62965 11997 ft 325 kts 187°
2026-04-21 11:57 34.41012 126.62732 12002 ft 325 kts 187°
2026-04-21 11:57 34.38738 126.62496 11998 ft 325 kts 187°
2026-04-21 11:57 34.36483 126.62263 12001 ft 325 kts 187°
2026-04-21 11:57 34.34242 126.62030 11997 ft 325 kts 187°
2026-04-21 11:58 34.31975 126.61794 11998 ft 325 kts 187°
2026-04-21 11:58 34.29738 126.61559 11998 ft 325 kts 187°
2026-04-21 11:58 34.27494 126.61325 11997 ft 325 kts 187°
2026-04-21 11:58 34.25229 126.61089 12000 ft 325 kts 187°
2026-04-21 11:59 34.22992 126.60855 11997 ft 325 kts 187°
2026-04-21 11:59 34.20723 126.60619 11999 ft 325 kts 187°
2026-04-21 11:59 34.18477 126.60384 11997 ft 325 kts 187°
2026-04-21 11:59 34.16230 126.60150 12002 ft 324 kts 187°
2026-04-21 12:00 34.13972 126.59916 11998 ft 325 kts 187°
2026-04-21 12:00 34.11709 126.59682 11997 ft 325 kts 187°
2026-04-21 12:00 34.09465 126.59450 11997 ft 325 kts 187°
2026-04-21 12:00 34.07193 126.59216 11997 ft 325 kts 187°
2026-04-21 12:01 34.04963 126.58985 11997 ft 325 kts 187°
2026-04-21 12:01 34.02780 126.58768 11977 ft 302 kts 185°
2026-04-21 12:01 34.00809 126.59334 11977 ft 285 kts 149°
2026-04-21 12:01 33.99514 126.61025 11662 ft 282 kts 116°
2026-04-21 12:02 33.98963 126.63266 11214 ft 280 kts 101°
2026-04-21 12:02 33.98281 126.67727 10517 ft 270 kts 97°
2026-04-21 12:02 33.97997 126.69983 10065 ft 270 kts 97°
2026-04-21 12:03 33.97739 126.72207 9617 ft 269 kts 96°
2026-04-21 12:03 33.97495 126.74417 9171 ft 268 kts 96°
2026-04-21 12:03 33.97256 126.76646 8719 ft 266 kts 96°
2026-04-21 12:03 33.97028 126.78824 8274 ft 265 kts 96°
2026-04-21 12:04 33.96803 126.81016 7824 ft 263 kts 96°
2026-04-21 12:04 33.96582 126.83196 7373 ft 261 kts 96°
2026-04-21 12:04 33.96368 126.85332 7025 ft 254 kts 96°
2026-04-21 12:04 33.96155 126.87462 7007 ft 256 kts 96°
2026-04-21 12:05 33.95944 126.89595 7001 ft 258 kts 96°
2026-04-21 12:05 33.95682 126.91724 6975 ft 259 kts 106°
2026-04-21 12:05 33.94859 126.93657 7006 ft 258 kts 120°
2026-04-21 12:05 33.93950 126.95509 6999 ft 259 kts 120°
2026-04-21 12:06 33.93022 126.97383 7000 ft 260 kts 120°
2026-04-21 12:06 33.92092 126.99259 7000 ft 260 kts 120°
2026-04-21 12:06 33.91067 127.01032 6975 ft 261 kts 132°
2026-04-21 12:06 33.89778 127.02593 7001 ft 260 kts 134°
2026-04-21 12:07 33.88486 127.04140 6999 ft 261 kts 134°
2026-04-21 12:07 33.87208 127.05665 6999 ft 261 kts 134°
2026-04-21 12:07 33.85908 127.07216 6998 ft 261 kts 135°
2026-04-21 12:07 33.84434 127.08467 6994 ft 261 kts 148°
2026-04-21 12:08 33.82871 127.09579 6998 ft 261 kts 148°
2026-04-21 12:08 33.81281 127.10701 6999 ft 262 kts 148°
2026-04-21 12:08 33.79719 127.11804 6999 ft 262 kts 148°
2026-04-21 12:08 33.78124 127.12839 6976 ft 263 kts 158°
2026-04-21 12:09 33.76364 127.13488 7002 ft 262 kts 162°
2026-04-21 12:09 33.74616 127.14098 6999 ft 262 kts 162°
2026-04-21 12:09 33.72871 127.14703 6999 ft 262 kts 162°
2026-04-21 12:09 33.71102 127.15316 6999 ft 262 kts 162°
2026-04-21 12:10 33.69291 127.15649 6985 ft 263 kts 176°
2026-04-21 12:10 33.67549 127.15981 7005 ft 249 kts 159°
2026-04-21 12:10 33.65926 127.16647 6990 ft 240 kts 160°
2026-04-21 12:10 33.64368 127.17272 6999 ft 237 kts 160°
2026-04-21 12:11 33.62794 127.17889 6997 ft 239 kts 161°
2026-04-21 12:11 33.61153 127.18366 6994 ft 241 kts 167°
2026-04-21 12:11 33.59498 127.18642 6993 ft 242 kts 175°
2026-04-21 12:11 33.57888 127.18178 6962 ft 243 kts 212°
2026-04-21 12:12 33.56612 127.16830 7002 ft 242 kts 223°
2026-04-21 12:12 33.55423 127.15404 6999 ft 244 kts 224°
2026-04-21 12:12 33.54422 127.13757 6955 ft 245 kts 251°
2026-04-21 12:12 33.54415 127.11755 6985 ft 243 kts 284°
2026-04-21 12:13 33.54934 127.09849 6829 ft 247 kts 288°
2026-04-21 12:13 33.55511 127.07859 6472 ft 252 kts 288°
2026-04-21 12:13 33.56117 127.05885 6122 ft 257 kts 290°
2026-04-21 12:13 33.56751 127.03852 5780 ft 260 kts 290°
2026-04-21 12:14 33.57388 127.01815 5436 ft 262 kts 290°
2026-04-21 12:14 33.58028 126.99762 5098 ft 264 kts 290°
2026-04-21 12:14 33.58652 126.97759 4751 ft 255 kts 290°
2026-04-21 12:14 33.59266 126.95787 4387 ft 248 kts 290°
2026-04-21 12:15 33.59853 126.93887 4052 ft 241 kts 290°
2026-04-21 12:15 33.60417 126.92053 4002 ft 233 kts 290°
2026-04-21 12:15 33.60983 126.90218 3998 ft 233 kts 290°
2026-04-21 12:15 33.61536 126.88410 3999 ft 232 kts 290°
2026-04-21 12:16 33.62091 126.86591 3998 ft 231 kts 290°
2026-04-21 12:16 33.62645 126.84774 3998 ft 231 kts 290°
2026-04-21 12:16 33.63190 126.82984 3999 ft 230 kts 290°
2026-04-21 12:16 33.63740 126.81171 3997 ft 230 kts 290°
2026-04-21 12:17 33.64290 126.79362 3999 ft 230 kts 290°
2026-04-21 12:17 33.64829 126.77580 3997 ft 230 kts 289°
2026-04-21 12:17 33.64854 126.75706 4013 ft 227 kts 247°
2026-04-21 12:17 33.64078 126.74056 4016 ft 227 kts 237°
2026-04-21 12:18 33.63241 126.72469 4002 ft 228 kts 236°
2026-04-21 12:18 33.62402 126.70885 4024 ft 213 kts 236°
2026-04-21 12:18 33.61639 126.69432 3804 ft 205 kts 236°
2026-04-21 12:18 33.60883 126.67992 3548 ft 199 kts 237°
2026-04-21 12:19 33.60181 126.66636 3349 ft 188 kts 237°
2026-04-21 12:19 33.59513 126.65350 3144 ft 175 kts 237°
2026-04-21 12:19 33.58897 126.64158 2882 ft 160 kts 237°
2026-04-21 12:19 33.58337 126.63068 2695 ft 149 kts 237°
2026-04-21 12:20 33.57793 126.62012 2480 ft 147 kts 237°
2026-04-21 12:20 33.57256 126.60963 2283 ft 150 kts 237°
2026-04-21 12:20 33.56702 126.59886 2075 ft 152 kts 237°
2026-04-21 12:20 33.56157 126.58824 1883 ft 146 kts 237°
2026-04-21 12:21 33.55637 126.57812 1678 ft 142 kts 237°
2026-04-21 12:21 33.55111 126.56789 1475 ft 143 kts 237°
2026-04-21 12:21 33.54595 126.55785 1278 ft 143 kts 237°
2026-04-21 12:21 33.54075 126.54771 1080 ft 142 kts 237°
2026-04-21 12:22 33.53553 126.53757 893 ft 140 kts 237°
2026-04-21 12:22 33.53061 126.52799 715 ft 134 kts 237°
2026-04-21 12:22 33.52573 126.51854 519 ft 131 kts 236°
2026-04-21 12:22 33.52107 126.50943 350 ft 125 kts 236°
2026-04-21 12:23 33.51659 126.50085 179 ft 116 kts 236°
2026-04-21 12:23 33.51259 126.49317 76 ft 97 kts 236°
2026-04-21 12:23 33.51013 126.48850 72 ft 33 kts 238°
2026-04-21 12:23 33.50926 126.48679 72 ft 19 kts 239°
2026-04-21 12:24 33.50869 126.48564 72 ft 12 kts 240°
2026-04-21 12:24 33.50828 126.48487 73 ft 10 kts 232°
2026-04-21 12:24 33.50756 126.48363 74 ft 20 kts 236°
2026-04-21 12:24 33.50661 126.48238 75 ft 18 kts 218°
2026-04-21 12:25 33.50571 126.48182 78 ft 11 kts 191°
2026-04-21 12:25 33.50526 126.48214 82 ft 6 kts 107°
2026-04-21 12:25 33.50546 126.48309 84 ft 17 kts 62°
2026-04-21 12:25 33.50621 126.48457 83 ft 22 kts 59°
2026-04-21 12:26 33.50702 126.48614 79 ft 22 kts 58°
2026-04-21 12:26 33.50784 126.48773 74 ft 22 kts 58°
2026-04-21 12:26 33.50866 126.48936 69 ft 22 kts 58°
2026-04-21 12:26 33.50942 126.49079 73 ft 18 kts 59°
2026-04-21 12:27 33.51002 126.49200 76 ft 16 kts 59°
2026-04-21 12:27 33.51038 126.49327 78 ft 16 kts 119°
2026-04-21 12:27 33.50957 126.49415 83 ft 14 kts 120°
2026-04-21 12:27 33.50932 126.49540 87 ft 16 kts 107°
2026-04-21 12:28 33.50872 126.49657 92 ft 16 kts 127°
2026-04-21 12:28 33.50808 126.49764 99 ft 14 kts 125°
2026-04-21 12:28 33.50754 126.49857 106 ft 12 kts 125°
2026-04-21 12:28 33.50702 126.49946 109 ft 8 kts 128°
2026-04-21 12:29 33.50675 126.49955 109 ft 4 kts 202°
2026-04-21 12:29 33.50642 126.49929 110 ft 3 kts 216°
2026-04-21 12:29 33.50641 126.49928 110 ft 0 kts 216°